This demonstration page uses our WeatherBlox Daily Observations layout. Learn more.

Left ArrowRight Arrow

39.12711, -84.51439

Hourly Observations for December 11, 2018

Temp ( °F °C ) Dew Point ( °F °C ) Humidity (%) Winds ( mph kmh ) Pressure ( in mb ) Visibility ( mi km ) Precip ( " mm )
12:02 am 00:02 Mostly Clear with Mist and Fog 17 -8.3 15 -9.4 92 92 Calm 30.30 1026 3 4 0.00 0.00
12:11 am 00:11 Mostly Cloudy with Mist and Fog 17 -8.3 15 -9.4 92 92 Calm 30.30 1026 3 5 0.00 0.00
12:53 am 00:53 Cloudy with Mist and Fog 18 -7.8 15 -9.4 88 88 Calm 30.29 1026 4 6 0.00 0.00
1:09 am 01:09 Cloudy with Mist and Fog 19 -7.2 16 -8.9 88 88 Calm 30.30 1026 3 5 0.00 0.00
1:24 am 01:24 Cloudy with Mist and Fog 20 -6.7 17 -8.3 89 89 Calm 30.30 1026 2 3 0.00 0.00
1:38 am 01:38 Cloudy with Mist and Fog 19 -7.2 17 -8.3 92 92 Calm 30.30 1026 2 3 0.00 0.00
1:43 am 01:43 Cloudy with Mist and Fog 19 -7.2 17 -8.3 92 92 Calm 30.30 1026 1 1 0.00 0.00
1:53 am 01:53 Mostly Cloudy with Freezing Fog 20 -6.7 17 -8.3 89 89 Calm 30.28 1025 1 1 0.00 0.00
2:01 am 02:01 Mostly Cloudy with Freezing Fog 20 -6.7 18 -7.8 92 92 Calm 30.30 1026 0 0 0.00 0.00
2:44 am 02:44 Cloudy with Mist and Fog 18 -7.8 15 -9.4 88 88 Calm 30.30 1026 1 2 0.00 0.00
2:51 am 02:51 Mostly Cloudy with Freezing Fog 18 -8 16 -9 93 93 Calm 30.30 1026 0 0 0.00 0.00
2:53 am 02:53 Mostly Cloudy with Freezing Fog 17 -8.3 15 -9.4 92 92 Calm 30.28 1026 0 0 0.00 0.00
3:48 am 03:48 Mostly Cloudy with Freezing Fog 18 -8 14 -10 86 86 Calm 30.30 1026 0 0 0.00 0.00
3:53 am 03:53 Mostly Cloudy with Freezing Fog 17 -8.3 14 -10 88 88 Calm 30.29 1026 0 0 0.00 0.00
4:09 am 04:09 Mostly Cloudy with Mist and Fog 17 -8.3 14 -10 88 88 Calm 30.30 1026 1 2 0.00 0.00
4:19 am 04:19 Mostly Cloudy with Freezing Fog 17 -8.3 14 -10 88 88 Calm 30.30 1026 0 0 0.00 0.00
4:28 am 04:28 Partly Cloudy with Mist and Fog 17 -8.3 14 -10 88 88 Calm 30.30 1026 1 1 0.00 0.00
4:31 am 04:31 Partly Cloudy with Mist and Fog 17 -8.3 13 -10.6 84 84 Calm 30.30 1026 2 3 0.00 0.00
4:39 am 04:39 Partly Cloudy with Mist and Fog 17 -8.3 13 -10.6 84 84 Calm 30.30 1026 3 5 0.00 0.00
4:53 am 04:53 Partly Cloudy with Mist and Fog 17 -8.3 13 -10.6 84 84 Calm 30.27 1025 3 5 0.00 0.00
5:05 am 05:05 Mostly Cloudy with Mist and Fog 17 -8.3 13 -10.6 84 84 Calm 30.27 1025 3 5 0.00 0.00
5:15 am 05:15 Cloudy with Mist and Fog 17 -8.3 13 -10.6 84 84 Calm 30.30 1026 3 5 0.00 0.00
5:53 am 05:53 Mostly Cloudy with Mist and Fog 16 -8.9 13 -10.6 88 88 ENE 3 6 30.28 1026 3 5 0.00 0.00
5:56 am 05:56 Mostly Cloudy with Mist and Fog 16 -8.9 13 -10.6 88 88 NE 3 6 30.30 1026 1 2 0.00 0.00
6:02 am 06:02 Mostly Cloudy with Freezing Fog 16 -8.9 13 -10.6 88 88 NNE 3 6 30.30 1026 0 0 0.00 0.00
6:21 am 06:21 Mostly Cloudy with Mist and Fog 16 -8.9 13 -10.6 88 88 Calm 30.30 1026 1 2 0.00 0.00
6:26 am 06:26 Mostly Cloudy with Freezing Fog 16 -8.9 13 -10.6 88 88 Calm 30.30 1026 0 0 0.00 0.00
6:39 am 06:39 Mostly Cloudy with Mist and Fog 16 -8.9 13 -10.6 88 88 Calm 30.30 1026 1 2 0.00 0.00
6:53 am 06:53 Partly Cloudy with Patchy Fog 16 -8.9 13 -10.6 88 88 Calm 30.29 1026 2 3 0.00 0.00
7:13 am 07:13 Mostly Clear with Mist and Fog 16 -8.9 12 -11.1 84 84 Calm 30.30 1026 4 6 0.00 0.00
7:53 am 07:53 Sunny with Mist and Fog 15 -9.4 12 -11.1 88 88 Calm 30.28 1026 5 8 0.00 0.00
8:53 am 08:53 Sunny with Mist and Fog 20 -6.7 17 -8.3 89 89 Calm 30.28 1026 5 8 0.00 0.00
9:53 am 09:53 Sunny with Mist and Fog 26 -3.3 23 -5 88 88 S 7 11 30.27 1025 5 8 0.00 0.00
10:53 am 10:53 Hazy 32 0 26 -3.3 79 79 S 8 13 30.26 1025 5 8 0.00 0.00
11:53 am 11:53 Sunny 37 2.8 22 -5.6 54 54 SW 12 19 30.22 1024 10 16 0.00 0.00
12:53 pm 12:53 Sunny 40 4.4 23 -5 51 51 SSW 9 15 30.18 1022 10 16 0.00 0.00
1:53 pm 13:53 Sunny 43 6.1 23 -5 45 45 SSW 15 24 30.14 1021 10 16 0.00 0.00
2:53 pm 14:53 Sunny 44 6.7 22 -5.6 41 41 SSW 10 17 30.13 1020 10 16 0.00 0.00
3:53 pm 15:53 Sunny 44 6.7 23 -5 43 43 SW 9 15 30.12 1020 10 16 0.00 0.00
4:53 pm 16:53 Sunny 41 5 23 -5 49 49 SSW 12 19 30.13 1020 10 16 0.00 0.00
5:53 pm 17:53 Clear 36 2.2 23 -5 59 59 SSW 8 13 30.14 1021 10 16 0.00 0.00
6:53 pm 18:53 Clear 33 0.6 23 -5 66 66 SSW 7 11 30.14 1021 10 16 0.00 0.00
7:53 pm 19:53 Clear 34 1.1 23 -5 64 64 SW 7 11 30.15 1021 10 16 0.00 0.00
8:53 pm 20:53 Clear 35 1.7 23 -5 61 61 SW 9 15 30.14 1021 10 16 0.00 0.00
9:53 pm 21:53 Clear 34 1.1 23 -5 64 64 SSW 7 11 30.14 1021 10 16 0.00 0.00
10:53 pm 22:53 Clear 34 1.1 23 -5 64 64 SSW 7 11 30.14 1021 10 16 0.00 0.00
11:53 pm 23:53 Clear 35 1.7 23 -5 61 61 SSW 7 11 30.14 1021 10 16 0.00 0.00

Powered by AerisWeather